Location: ????????
(55.5667°N, 37.5833°E)
Time: 07:13:38
(UTC+00:00)

NOSS 3-1 (C) - Pass Details

Date: 14 April 2026
Orbit: 618 x 1583 km, 63.4° (Epoch: 10 January)

Event Time Altitude Azimuth Distance (km) Brightness Sun altitude
Rises 18:10:48 0° 302° (WNW) 3,434 8.3 -12.8°
Reaches altitude 10° 18:13:05 10° 306° (NW) 2,614 7.2 -13.1°
Maximum altitude 18:19:12 59° 26° (NNE) 1,247 4.1 -13.7°
Enters shadow 18:26:02 14° 103° (ESE) 2,978 5.5 -14.5°
